Palm Springs, CA

3:15 AM PDT on May 20, 2018 (GMT -0700)
Palm Springs International

Weather History for KPSP - November, 2013

Change the Weather History Date:

Tuesday, November 5, 2013

  Actual Average Record
Temperature  
Mean Temperature 68 °F 69 °F  
Max Temperature 75 °F 82 °F 96 °F (1991)
Min Temperature 61 °F 56 °F 34 °F (1936)
Degree Days  
Heating Degree Days 0 1  
Month to date heating degree days 0 5  
Since 1 July heating degree days 10 9  
Cooling Degree Days 3 5  
Month to date cooling degree days 17 27  
Year to date cooling degree days 4454 4089  
Growing Degree Days 16 (Base 50)    
Moisture  
Dew Point 11 °F    
Average Humidity 24    
Maximum Humidity 42    
Minimum Humidity 5    
Precipitation  
Precipitation 0.00 in 0.01 in 0.69 in (1987)
Month to date precipitation 0.00 0.06  
Year to date precipitation 2.12 4.39  
Since 1 July precipitation 1.15  
Snow  
Snow 0.00 in - - ()
Month to date snowfall 0.0  
Year to date snowfall 0.0  
Snow Depth 0.00 in    
Sea Level Pressure  
Sea Level Pressure 30.12 in    
Wind  
Wind Speed 8 mph (NNW)    
Max Wind Speed 20 mph    
Max Gust Speed 25 mph    
Visibility 10 miles    
Events      
T = Trace of Precipitation, MM = Missing Value Source: NWS Daily Summary

Daily Weather History Graph

Daily Weather History Graph

Search for Another Location

Airport or City:

Astronomy

Nov. 05, 2013 Rise Set
Actual Time 6:09 AM PST 4:49 PM PST
Civil Twilight 5:43 AM PST 5:15 PM PST
Nautical Twilight 5:13 AM PST 5:45 PM PST
Astronomical Twilight 4:44 AM PST 6:14 PM PST
Moon 8:24 AM PST (11/5) 6:59 PM PST (11/5)
Length of Visible Light 11h 32m
Length of Day
10h 40m
Waxing Crescent, 7% of the Moon is Illuminated
Nov 5
Waxing Crescent
Nov 9
First Quarter
Nov 17
Full
Nov 25
Last Quarter
Dec 2
New

Hourly Weather History & Observations

Time (PST) Temp. Dew Point Humidity Pressure Visibility Wind Dir Wind Speed Gust Speed Precip Events Conditions
12:53 AM 64.0 °F 36.0 °F 35% 29.94 in 10.0 mi Variable 3.5 mph - N/A   Clear
1:53 AM 61.0 °F 37.9 °F 42% 29.95 in 10.0 mi WNW 4.6 mph - N/A   Clear
2:53 AM 64.0 °F 28.9 °F 27% 29.97 in 10.0 mi Calm Calm - N/A   Clear
3:53 AM 62.1 °F 25.0 °F 24% 30.01 in 10.0 mi Calm Calm - N/A   Clear
4:53 AM 64.9 °F 19.0 °F 17% 30.04 in 10.0 mi WNW 3.5 mph - N/A   Clear
5:53 AM 62.1 °F 17.1 °F 18% 30.06 in 10.0 mi NNW 9.2 mph - N/A   Clear
6:53 AM 64.0 °F 14.0 °F 14% 30.11 in 10.0 mi NW 9.2 mph - N/A   Clear
7:53 AM 66.9 °F 12.0 °F 12% 30.14 in 10.0 mi NNW 11.5 mph - N/A   Clear
8:53 AM 68.0 °F 9.0 °F 10% 30.16 in 10.0 mi NNW 4.6 mph - N/A   Clear
9:53 AM 71.1 °F 7.0 °F 8% 30.17 in 10.0 mi North 15.0 mph 20.7 mph N/A   Clear
10:53 AM 72.0 °F 8.1 °F 8% 30.15 in 10.0 mi NNE 13.8 mph 18.4 mph N/A   Clear
11:53 AM 73.0 °F 3.9 °F 7% 30.14 in 10.0 mi NNE 16.1 mph - N/A   Clear
12:53 PM 73.0 °F 1.0 °F 6% 30.12 in 10.0 mi NNE 12.7 mph 20.7 mph N/A   Clear
1:53 PM 73.0 °F -0.9 °F 5% 30.12 in 10.0 mi Calm Calm - N/A   Clear
2:53 PM 73.9 °F 1.0 °F 6% 30.12 in 10.0 mi NE 11.5 mph - N/A   Clear
3:53 PM 73.0 °F 1.0 °F 6% 30.12 in 10.0 mi NNE 9.2 mph - N/A   Clear
4:53 PM 70.0 °F 1.9 °F 7% 30.14 in 10.0 mi NE 4.6 mph - N/A   Clear
5:53 PM 69.1 °F 1.9 °F 7% 30.16 in 10.0 mi North 6.9 mph - N/A   Clear
6:53 PM 64.9 °F 10.0 °F 12% 30.17 in 10.0 mi West 6.9 mph - N/A   Clear
7:53 PM 64.9 °F 7.0 °F 10% 30.18 in 10.0 mi Calm Calm - N/A   Clear
8:53 PM 66.0 °F 6.1 °F 9% 30.19 in 10.0 mi NNW 6.9 mph - N/A   Clear
9:53 PM 63.0 °F 9.0 °F 12% 30.21 in 10.0 mi West 5.8 mph - N/A   Clear
10:53 PM 60.1 °F 10.0 °F 14% 30.21 in 10.0 mi West 5.8 mph - N/A   Clear
11:53 PM 59.0 °F 10.0 °F 14% 30.21 in 10.0 mi West 5.8 mph - N/A   Clear